VOZ866 YSSY-YMML

Flight info

Callsign VOZ866
Flight time 1h 12m
Altitude 34000
Route MARUB7/34R WOL H65 LEECE Q29 ML
Aircraft B738/M-SDE2E3FGHIRWXY/LB1

Departure

Time 2026-04-25 06:30
Airport Sydney Kingsford Smith International Airport (YSSY)

Arrival

Time 2026-04-25 07:42
Airport Melbourne Airport (YMML)
Time Latitude Longitude Altitude Speed Heading
2026-04-25 05:51 -33.93596 151.17981 29 ft 0 kts 280°
2026-04-25 06:13 -33.93597 151.17990 29 ft 3 kts 280°
2026-04-25 06:13 -33.93602 151.18021 29 ft 3 kts 277°
2026-04-25 06:13 -33.93602 151.18043 29 ft 3 kts 242°
2026-04-25 06:14 -33.93581 151.18056 29 ft 3 kts 190°
2026-04-25 06:14 -33.93568 151.18059 29 ft 3 kts 190°
2026-04-25 06:14 -33.93550 151.18063 29 ft 2 kts 190°
2026-04-25 06:14 -33.93548 151.18063 29 ft 1 kts 190°
2026-04-25 06:17 -33.93561 151.18060 29 ft 5 kts 191°
2026-04-25 06:17 -33.93608 151.18050 29 ft 8 kts 185°
2026-04-25 06:17 -33.93667 151.18049 29 ft 9 kts 176°
2026-04-25 06:17 -33.93726 151.18063 29 ft 8 kts 169°
2026-04-25 06:18 -33.93775 151.18038 29 ft 8 kts 239°
2026-04-25 06:18 -33.93793 151.17972 29 ft 9 kts 254°
2026-04-25 06:18 -33.93811 151.17896 29 ft 10 kts 254°
2026-04-25 06:18 -33.93837 151.17801 29 ft 13 kts 239°
2026-04-25 06:19 -33.93919 151.17785 28 ft 14 kts 167°
2026-04-25 06:19 -33.94024 151.17812 28 ft 16 kts 167°
2026-04-25 06:19 -33.94133 151.17841 28 ft 16 kts 168°
2026-04-25 06:19 -33.94263 151.17873 29 ft 22 kts 168°
2026-04-25 06:20 -33.94417 151.17910 29 ft 20 kts 177°
2026-04-25 06:20 -33.94550 151.17889 29 ft 19 kts 168°
2026-04-25 06:20 -33.94679 151.17923 29 ft 19 kts 168°
2026-04-25 06:20 -33.94804 151.17956 29 ft 18 kts 167°
2026-04-25 06:21 -33.94927 151.17987 29 ft 19 kts 168°
2026-04-25 06:21 -33.95034 151.18014 29 ft 12 kts 168°
2026-04-25 06:21 -33.95098 151.18065 29 ft 12 kts 112°
2026-04-25 06:21 -33.95088 151.18168 29 ft 11 kts 78°
2026-04-25 06:22 -33.95073 151.18256 29 ft 10 kts 78°
2026-04-25 06:22 -33.95061 151.18321 29 ft 8 kts 78°
2026-04-25 06:22 -33.95050 151.18386 29 ft 9 kts 78°
2026-04-25 06:22 -33.95047 151.18476 29 ft 12 kts 112°
2026-04-25 06:23 -33.95115 151.18544 29 ft 13 kts 141°
2026-04-25 06:23 -33.95193 151.18628 29 ft 18 kts 137°
2026-04-25 06:23 -33.95312 151.18717 29 ft 23 kts 162°
2026-04-25 06:23 -33.95480 151.18762 29 ft 26 kts 168°
2026-04-25 06:24 -33.95650 151.18806 29 ft 24 kts 168°
2026-04-25 06:24 -33.95808 151.18847 29 ft 23 kts 168°
2026-04-25 06:24 -33.95937 151.18881 29 ft 14 kts 167°
2026-04-25 06:24 -33.95999 151.18897 29 ft 4 kts 167°
2026-04-25 06:25 -33.96003 151.18898 29 ft 0 kts 167°
2026-04-25 06:26 -33.96021 151.18903 29 ft 8 kts 167°
2026-04-25 06:26 -33.96123 151.18929 29 ft 21 kts 168°
2026-04-25 06:26 -33.96304 151.18975 29 ft 32 kts 168°
2026-04-25 06:27 -33.96525 151.19032 29 ft 30 kts 168°
2026-04-25 06:27 -33.96710 151.19073 29 ft 25 kts 180°
2026-04-25 06:27 -33.96874 151.19079 29 ft 23 kts 168°
2026-04-25 06:27 -33.97003 151.19112 29 ft 17 kts 168°
2026-04-25 06:28 -33.97102 151.19143 29 ft 13 kts 150°
2026-04-25 06:28 -33.97120 151.19229 28 ft 11 kts 78°
2026-04-25 06:28 -33.97104 151.19318 27 ft 12 kts 77°
2026-04-25 06:28 -33.97062 151.19369 26 ft 7 kts
2026-04-25 06:29 -33.97034 151.19365 27 ft 2 kts 348°
2026-04-25 06:29 -33.97020 151.19361 25 ft 2 kts 348°
2026-04-25 06:29 -33.96929 151.19338 24 ft 43 kts 348°
2026-04-25 06:29 -33.96319 151.19179 26 ft 133 kts 347°
2026-04-25 06:30 -33.95191 151.18875 259 ft 187 kts 351°
2026-04-25 06:30 -33.93831 151.18538 954 ft 206 kts 358°
2026-04-25 06:30 -33.92451 151.18916 1450 ft 206 kts 34°
2026-04-25 06:30 -33.91637 151.20309 1859 ft 216 kts 75°
2026-04-25 06:31 -33.91749 151.22126 2262 ft 219 kts 99°
2026-04-25 06:31 -33.92084 151.23879 2883 ft 214 kts 101°
2026-04-25 06:31 -33.92408 151.25632 3414 ft 215 kts 101°
2026-04-25 06:31 -33.92621 151.27428 3863 ft 218 kts 92°
2026-04-25 06:32 -33.92644 151.29265 4388 ft 222 kts 88°
2026-04-25 06:32 -33.92600 151.31159 4835 ft 233 kts 86°
2026-04-25 06:32 -33.92548 151.33118 4833 ft 267 kts 89°
2026-04-25 06:32 -33.92608 151.34271 4914 ft 275 kts 101°
2026-04-25 06:33 -33.92882 151.35353 5299 ft 267 kts 115°
2026-04-25 06:33 -33.93364 151.36288 5772 ft 264 kts 128°
2026-04-25 06:33 -33.94017 151.37079 6113 ft 270 kts 143°
2026-04-25 06:33 -33.94826 151.37669 6500 ft 274 kts 157°
2026-04-25 06:34 -33.95738 151.38010 6941 ft 275 kts 171°
2026-04-25 06:34 -33.96688 151.38116 7392 ft 275 kts 178°
2026-04-25 06:34 -33.97645 151.38114 7852 ft 276 kts 181°
2026-04-25 06:34 -33.98610 151.38073 8264 ft 278 kts 182°
2026-04-25 06:35 -33.99580 151.38015 8679 ft 281 kts 182°
2026-04-25 06:35 -34.00557 151.37946 9105 ft 282 kts 182°
2026-04-25 06:35 -34.01528 151.37873 9533 ft 284 kts 182°
2026-04-25 06:35 -34.02515 151.37796 9976 ft 285 kts 182°
2026-04-25 06:36 -34.03511 151.37716 10353 ft 290 kts 182°
2026-04-25 06:36 -34.04544 151.37632 10425 ft 305 kts 183°
2026-04-25 06:36 -34.05627 151.37543 10529 ft 318 kts 182°
2026-04-25 06:36 -34.06749 151.37450 10663 ft 329 kts 183°
2026-04-25 06:37 -34.07909 151.37353 10797 ft 339 kts 182°
2026-04-25 06:37 -34.09098 151.37254 11056 ft 345 kts 183°
2026-04-25 06:37 -34.10295 151.37155 11475 ft 344 kts 183°
2026-04-25 06:37 -34.11499 151.37055 11974 ft 342 kts 183°
2026-04-25 06:38 -34.12674 151.36957 12364 ft 345 kts 183°
2026-04-25 06:38 -34.13878 151.36857 12669 ft 349 kts 183°
2026-04-25 06:38 -34.15090 151.36737 13039 ft 351 kts 187°
2026-04-25 06:38 -34.16283 151.36418 13436 ft 353 kts 198°
2026-04-25 06:39 -34.17405 151.35805 13858 ft 355 kts 210°
2026-04-25 06:39 -34.18407 151.34926 14239 ft 359 kts 221°
2026-04-25 06:39 -34.19258 151.33816 14568 ft 362 kts 231°
2026-04-25 06:39 -34.20018 151.32599 14912 ft 364 kts 231°
2026-04-25 06:40 -34.20789 151.31381 15233 ft 366 kts 231°
2026-04-25 06:40 -34.21577 151.30160 15545 ft 369 kts 230°
2026-04-25 06:40 -34.22375 151.28939 15862 ft 372 kts 230°
2026-04-25 06:40 -34.23183 151.27715 16185 ft 374 kts 230°
2026-04-25 06:41 -34.23999 151.26488 16516 ft 376 kts 230°
2026-04-25 06:41 -34.24691 151.25450 16797 ft 377 kts 229°
2026-04-25 06:41 -34.25061 151.24899 16946 ft 378 kts 229°
2026-04-25 06:41 -34.26044 151.23433 17348 ft 380 kts 229°
2026-04-25 06:42 -34.27723 151.20941 17993 ft 384 kts 229°
2026-04-25 06:42 -34.29423 151.18421 18615 ft 389 kts 229°
2026-04-25 06:42 -34.31141 151.15873 19180 ft 393 kts 229°
2026-04-25 06:42 -34.32875 151.13301 19757 ft 396 kts 229°
2026-04-25 06:43 -34.34621 151.10711 20334 ft 398 kts 229°
2026-04-25 06:43 -34.36376 151.08104 20912 ft 401 kts 229°
2026-04-25 06:43 -34.38146 151.05471 21449 ft 405 kts 229°
2026-04-25 06:43 -34.39932 151.02813 21968 ft 409 kts 229°
2026-04-25 06:44 -34.41732 151.00132 22516 ft 412 kts 229°
2026-04-25 06:44 -34.43544 150.97431 23039 ft 415 kts 229°
2026-04-25 06:44 -34.45369 150.94708 23561 ft 418 kts 229°
2026-04-25 06:44 -34.47184 150.91998 24038 ft 421 kts 229°
2026-04-25 06:45 -34.49033 150.89234 24477 ft 423 kts 229°
2026-04-25 06:45 -34.50888 150.86459 24943 ft 425 kts 229°
2026-04-25 06:45 -34.52751 150.83671 25407 ft 426 kts 229°
2026-04-25 06:45 -34.54620 150.80874 25837 ft 428 kts 229°
2026-04-25 06:46 -34.56488 150.78057 26265 ft 430 kts 230°
2026-04-25 06:46 -34.58299 150.75156 26680 ft 432 kts 232°
2026-04-25 06:46 -34.60070 150.72204 27101 ft 434 kts 232°
2026-04-25 06:46 -34.61833 150.69224 27498 ft 436 kts 233°
2026-04-25 06:47 -34.63607 150.66227 27881 ft 438 kts 232°
2026-04-25 06:47 -34.65391 150.63222 28260 ft 440 kts 232°
2026-04-25 06:47 -34.67191 150.60205 28636 ft 442 kts 232°
2026-04-25 06:47 -34.69000 150.57182 29008 ft 443 kts 232°
2026-04-25 06:48 -34.70819 150.54147 29372 ft 445 kts 232°
2026-04-25 06:48 -34.72644 150.51102 29839 ft 444 kts 232°
2026-04-25 06:48 -34.74456 150.48077 30415 ft 441 kts 232°
2026-04-25 06:48 -34.76254 150.45072 30898 ft 438 kts 232°
2026-04-25 06:49 -34.78041 150.42083 31295 ft 437 kts 232°
2026-04-25 06:49 -34.79830 150.39090 31633 ft 438 kts 232°
2026-04-25 06:49 -34.81620 150.36091 31989 ft 437 kts 232°
2026-04-25 06:49 -34.83401 150.33104 32400 ft 436 kts 232°
2026-04-25 06:50 -34.85178 150.30122 32800 ft 434 kts 232°
2026-04-25 06:50 -34.86950 150.27146 33152 ft 434 kts 232°
2026-04-25 06:50 -34.88717 150.24175 33478 ft 434 kts 232°
2026-04-25 06:50 -34.90485 150.21200 33848 ft 433 kts 232°
2026-04-25 06:51 -34.92244 150.18237 34223 ft 431 kts 233°
2026-04-25 06:51 -34.94009 150.15264 34332 ft 434 kts 233°
2026-04-25 06:51 -34.95779 150.12278 34341 ft 434 kts 233°
2026-04-25 06:52 -34.99296 150.06337 34341 ft 430 kts 233°
2026-04-25 06:52 -35.02789 150.00427 34345 ft 429 kts 233°
2026-04-25 06:53 -35.06269 149.94533 34345 ft 428 kts 233°
2026-04-25 06:53 -35.09749 149.88638 34350 ft 428 kts 233°
2026-04-25 06:54 -35.11473 149.85716 34351 ft 428 kts 233°
2026-04-25 06:54 -35.14236 149.81026 34349 ft 429 kts 233°
2026-04-25 06:55 -35.17723 149.75097 34348 ft 430 kts 233°
2026-04-25 06:55 -35.21213 149.69152 34347 ft 431 kts 233°
2026-04-25 06:56 -35.24710 149.63184 34343 ft 432 kts 234°
2026-04-25 06:56 -35.28208 149.57205 34356 ft 432 kts 234°
2026-04-25 06:57 -35.31709 149.51211 34356 ft 433 kts 234°
2026-04-25 06:57 -35.35210 149.45206 34361 ft 433 kts 234°
2026-04-25 06:58 -35.38708 149.39195 34364 ft 433 kts 234°
2026-04-25 06:58 -35.42200 149.33185 34368 ft 432 kts 234°
2026-04-25 06:59 -35.45683 149.27179 34368 ft 432 kts 234°
2026-04-25 06:59 -35.49155 149.21183 34362 ft 431 kts 234°
2026-04-25 07:00 -35.52618 149.15194 34359 ft 430 kts 234°
2026-04-25 07:00 -35.56074 149.09204 34358 ft 429 kts 234°
2026-04-25 07:01 -35.59521 149.03220 34353 ft 429 kts 234°
2026-04-25 07:01 -35.62959 148.97242 34344 ft 428 kts 234°
2026-04-25 07:02 -35.65810 148.92276 34351 ft 428 kts 234°
2026-04-25 07:02 -35.69240 148.86293 34349 ft 428 kts 234°
2026-04-25 07:03 -35.72666 148.80306 34359 ft 428 kts 234°
2026-04-25 07:03 -35.76087 148.74317 34365 ft 428 kts 234°
2026-04-25 07:04 -35.79509 148.68315 34353 ft 428 kts 234°
2026-04-25 07:04 -35.82928 148.62309 34361 ft 428 kts 234°
2026-04-25 07:05 -35.86344 148.56299 34368 ft 428 kts 234°
2026-04-25 07:05 -35.89758 148.50272 34360 ft 429 kts 234°
2026-04-25 07:06 -35.93158 148.44229 34362 ft 429 kts 235°
2026-04-25 07:06 -35.96559 148.38170 34362 ft 429 kts 235°
2026-04-25 07:07 -35.99959 148.32105 34360 ft 430 kts 235°
2026-04-25 07:07 -36.03356 148.26035 34361 ft 430 kts 235°
2026-04-25 07:08 -36.06750 148.19962 34357 ft 430 kts 235°
2026-04-25 07:08 -36.10143 148.13879 34356 ft 429 kts 235°
2026-04-25 07:09 -36.13532 148.07802 34357 ft 429 kts 235°
2026-04-25 07:09 -36.16927 148.01727 34354 ft 429 kts 235°
2026-04-25 07:10 -36.20311 147.95660 34360 ft 428 kts 236°
2026-04-25 07:10 -36.23694 147.89583 34349 ft 428 kts 236°
2026-04-25 07:11 -36.27070 147.83505 34352 ft 428 kts 236°
2026-04-25 07:11 -36.30440 147.77427 34348 ft 428 kts 236°
2026-04-25 07:12 -36.33807 147.71345 34355 ft 427 kts 236°
2026-04-25 07:12 -36.38845 147.62208 34351 ft 427 kts 236°
2026-04-25 07:13 -36.42175 147.56152 34346 ft 428 kts 236°
2026-04-25 07:13 -36.45526 147.50048 34351 ft 428 kts 236°
2026-04-25 07:14 -36.48872 147.43940 34348 ft 428 kts 236°
2026-04-25 07:14 -36.52219 147.37822 34346 ft 428 kts 237°
2026-04-25 07:15 -36.55560 147.31703 34343 ft 427 kts 237°
2026-04-25 07:15 -36.58893 147.25587 34350 ft 427 kts 237°
2026-04-25 07:16 -36.62224 147.19464 34347 ft 427 kts 237°
2026-04-25 07:16 -36.65517 147.13400 34340 ft 420 kts 237°
2026-04-25 07:17 -36.68828 147.07292 34357 ft 431 kts 237°
2026-04-25 07:17 -36.70522 147.04162 34030 ft 440 kts 237°
2026-04-25 07:17 -36.72236 147.00998 33652 ft 440 kts 237°
2026-04-25 07:18 -36.73954 146.97825 33179 ft 443 kts 237°
2026-04-25 07:18 -36.75681 146.94635 32741 ft 444 kts 237°
2026-04-25 07:18 -36.77407 146.91443 32297 ft 445 kts 237°
2026-04-25 07:18 -36.79138 146.88239 31855 ft 446 kts 237°
2026-04-25 07:19 -36.80869 146.85030 31406 ft 446 kts 237°
2026-04-25 07:19 -36.82603 146.81813 30960 ft 447 kts 237°
2026-04-25 07:19 -36.84339 146.78589 30524 ft 448 kts 237°
2026-04-25 07:19 -36.86077 146.75357 30007 ft 449 kts 237°
2026-04-25 07:20 -36.87819 146.72115 29504 ft 450 kts 238°
2026-04-25 07:20 -36.89561 146.68869 29000 ft 450 kts 238°
2026-04-25 07:20 -36.91306 146.65616 28524 ft 451 kts 238°
2026-04-25 07:20 -36.93076 146.62311 28049 ft 463 kts 238°
2026-04-25 07:21 -36.94875 146.58948 27550 ft 468 kts 238°
2026-04-25 07:21 -36.96696 146.55543 27053 ft 472 kts 238°
2026-04-25 07:21 -36.98519 146.52130 26560 ft 472 kts 238°
2026-04-25 07:21 -37.00343 146.48714 26054 ft 472 kts 238°
2026-04-25 07:22 -37.02165 146.45297 25560 ft 472 kts 238°
2026-04-25 07:22 -37.03983 146.41883 25065 ft 470 kts 238°
2026-04-25 07:22 -37.05780 146.38507 24554 ft 463 kts 238°
2026-04-25 07:22 -37.07549 146.35181 24057 ft 456 kts 238°
2026-04-25 07:23 -37.09299 146.31882 23497 ft 454 kts 238°
2026-04-25 07:23 -37.11038 146.28597 22976 ft 451 kts 238°
2026-04-25 07:23 -37.12763 146.25334 22478 ft 447 kts 238°
2026-04-25 07:23 -37.14479 146.22084 21805 ft 448 kts 238°
2026-04-25 07:24 -37.16191 146.18838 21296 ft 444 kts 238°
2026-04-25 07:24 -37.17864 146.15664 20811 ft 441 kts 238°
2026-04-25 07:24 -37.19545 146.12472 20335 ft 437 kts 238°
2026-04-25 07:24 -37.21213 146.09303 19871 ft 434 kts 238°
2026-04-25 07:25 -37.22867 146.06157 19407 ft 431 kts 238°
2026-04-25 07:25 -37.24508 146.03031 18944 ft 428 kts 238°
2026-04-25 07:25 -37.26138 145.99924 18476 ft 425 kts 238°
2026-04-25 07:25 -37.27762 145.96825 17967 ft 423 kts 238°
2026-04-25 07:26 -37.29373 145.93751 17487 ft 420 kts 238°
2026-04-25 07:26 -37.30972 145.90697 17028 ft 417 kts 238°
2026-04-25 07:26 -37.32566 145.87660 16583 ft 415 kts 238°
2026-04-25 07:26 -37.34154 145.84637 16137 ft 414 kts 238°
2026-04-25 07:27 -37.35740 145.81620 15679 ft 413 kts 238°
2026-04-25 07:27 -37.37317 145.78613 15251 ft 412 kts 238°
2026-04-25 07:27 -37.38892 145.75608 14799 ft 411 kts 239°
2026-04-25 07:27 -37.40464 145.72603 14336 ft 410 kts 239°
2026-04-25 07:28 -37.42028 145.69613 13870 ft 409 kts 239°
2026-04-25 07:28 -37.43583 145.66638 13395 ft 405 kts 239°
2026-04-25 07:28 -37.45122 145.63693 12921 ft 399 kts 239°
2026-04-25 07:28 -37.46694 145.60842 12444 ft 394 kts 237°
2026-04-25 07:29 -37.48320 145.58080 12016 ft 391 kts 236°
2026-04-25 07:29 -37.49943 145.55359 11578 ft 388 kts 236°
2026-04-25 07:29 -37.51549 145.52643 11162 ft 385 kts 236°
2026-04-25 07:29 -37.53133 145.49931 10744 ft 383 kts 237°
2026-04-25 07:30 -37.54701 145.47233 10364 ft 380 kts 237°
2026-04-25 07:30 -37.56240 145.44575 10215 ft 374 kts 237°
2026-04-25 07:30 -37.57769 145.41934 10053 ft 366 kts 237°
2026-04-25 07:30 -37.59188 145.39490 9691 ft 347 kts 237°
2026-04-25 07:31 -37.60577 145.37093 9347 ft 329 kts 237°
2026-04-25 07:31 -37.61895 145.34814 9054 ft 313 kts 238°
2026-04-25 07:31 -37.63132 145.32674 8995 ft 291 kts 238°
2026-04-25 07:31 -37.64283 145.30680 8983 ft 272 kts 238°
2026-04-25 07:32 -37.65359 145.28811 8820 ft 259 kts 238°
2026-04-25 07:32 -37.66406 145.26989 8474 ft 255 kts 238°
2026-04-25 07:32 -37.67443 145.25184 8097 ft 253 kts 238°
2026-04-25 07:32 -37.68473 145.23394 7705 ft 253 kts 238°
2026-04-25 07:33 -37.69506 145.21597 7476 ft 251 kts 238°
2026-04-25 07:33 -37.70524 145.19829 7245 ft 247 kts 238°
2026-04-25 07:33 -37.71533 145.18073 6864 ft 248 kts 238°
2026-04-25 07:33 -37.72540 145.16321 6557 ft 245 kts 238°
2026-04-25 07:34 -37.73546 145.14569 6131 ft 247 kts 238°
2026-04-25 07:34 -37.74541 145.12834 5785 ft 248 kts 238°
2026-04-25 07:34 -37.75547 145.11083 5625 ft 246 kts 238°
2026-04-25 07:34 -37.76566 145.09306 5454 ft 247 kts 238°
2026-04-25 07:35 -37.77588 145.07522 5191 ft 253 kts 239°
2026-04-25 07:35 -37.78616 145.05725 4920 ft 259 kts 239°
2026-04-25 07:35 -37.79672 145.03880 4606 ft 258 kts 238°
2026-04-25 07:35 -37.80715 145.02060 4337 ft 253 kts 239°
2026-04-25 07:36 -37.81513 145.00181 4208 ft 233 kts 261°
2026-04-25 07:36 -37.81846 144.98239 4118 ft 221 kts 263°
2026-04-25 07:36 -37.82168 144.96373 4025 ft 213 kts 263°
2026-04-25 07:36 -37.82480 144.94583 3951 ft 202 kts 264°
2026-04-25 07:37 -37.82715 144.92880 3801 ft 194 kts 267°
2026-04-25 07:37 -37.82917 144.91222 3597 ft 188 kts 267°
2026-04-25 07:37 -37.83114 144.89597 3410 ft 185 kts 268°
2026-04-25 07:37 -37.82971 144.88065 3130 ft 170 kts 309°
2026-04-25 07:38 -37.82091 144.87279 3035 ft 151 kts 337°
2026-04-25 07:38 -37.81154 144.86717 2833 ft 147 kts 342°
2026-04-25 07:38 -37.80177 144.86367 2650 ft 145 kts 346°
2026-04-25 07:38 -37.79192 144.86086 2463 ft 146 kts 350°
2026-04-25 07:39 -37.78201 144.85882 2276 ft 138 kts 351°
2026-04-25 07:39 -37.77295 144.85711 2110 ft 127 kts 352°
2026-04-25 07:39 -37.76441 144.85554 1920 ft 123 kts 351°
2026-04-25 07:39 -37.75580 144.85394 1766 ft 125 kts 352°
2026-04-25 07:40 -37.74737 144.85238 1593 ft 119 kts 352°
2026-04-25 07:40 -37.73930 144.85089 1437 ft 118 kts 353°
2026-04-25 07:40 -37.73123 144.84940 1279 ft 117 kts 353°
2026-04-25 07:40 -37.72323 144.84792 1088 ft 119 kts 352°
2026-04-25 07:41 -37.71486 144.84639 966 ft 123 kts 354°
2026-04-25 07:41 -37.70641 144.84469 810 ft 123 kts 355°
2026-04-25 07:41 -37.69778 144.84321 665 ft 124 kts 353°
2026-04-25 07:41 -37.68940 144.84161 476 ft 122 kts 354°
2026-04-25 07:42 -37.68124 144.84010 360 ft 113 kts 355°
2026-04-25 07:42 -37.67475 144.83892 369 ft 72 kts 352°
2026-04-25 07:42 -37.67129 144.83831 381 ft 28 kts 356°
2026-04-25 07:42 -37.67005 144.83842 384 ft 16 kts
2026-04-25 07:43 -37.66903 144.83882 388 ft 11 kts 21°
2026-04-25 07:43 -37.66864 144.83901 390 ft 5 kts 21°
2026-04-25 07:43 -37.66834 144.83916 390 ft 5 kts 21°
2026-04-25 07:43 -37.66805 144.83930 391 ft 4 kts 21°
2026-04-25 07:44 -37.66777 144.83946 392 ft 4 kts 27°
2026-04-25 07:44 -37.66750 144.83970 393 ft 5 kts 41°
2026-04-25 07:44 -37.66725 144.84015 391 ft 7 kts 69°
2026-04-25 07:44 -37.66723 144.84096 394 ft 12 kts 103°
2026-04-25 07:45 -37.66784 144.84186 391 ft 16 kts 156°
2026-04-25 07:45 -37.66906 144.84214 387 ft 19 kts 171°
2026-04-25 07:45 -37.67028 144.84237 384 ft 16 kts 171°
2026-04-25 07:45 -37.67134 144.84259 382 ft 13 kts 171°
2026-04-25 07:46 -37.67203 144.84320 382 ft 13 kts 104°
2026-04-25 07:46 -37.67199 144.84431 383 ft 13 kts 94°
2026-04-25 07:46 -37.67210 144.84533 384 ft 9 kts 83°
2026-04-25 07:46 -37.67201 144.84586 385 ft 5 kts 57°
2026-04-25 07:47 -37.67183 144.84595 386 ft 2 kts
2026-04-25 07:47 -37.67168 144.84592 386 ft 2 kts 351°
2026-04-25 07:47 -37.67154 144.84590 386 ft 2 kts 352°
2026-04-25 07:47 -37.67139 144.84587 387 ft 2 kts 351°
2026-04-25 07:48 -37.67135 144.84586 387 ft 1 kts 351°
2026-04-25 07:48 -37.67132 144.84586 387 ft 0 kts 352°